Location: Poughquag
(41.6090°N, 73.6820°W)
Time: 03:06:34
(UTC-04:00)

Transit 4A - Pass Details

Date: 04 June 2020
Orbit: 866 x 978 km, 66.8° (Epoch: 06 July)

Event Time Altitude Azimuth Distance (km) Brightness Sun altitude
Rises 11:09:14 0° 323° (NW) 3,583 10.7 61.1°
Reaches altitude 10° 11:11:52 10° 317° (NW) 2,653 10.1 61.5°
Maximum altitude 11:17:36 41° 249° (WSW) 1,346 9.2 62.4°
Drops below altitude 10° 11:23:27 10° 181° (S) 2,699 10.7 63.2°
Sets 11:26:10 0° 174° (S) 3,651 11.3 63.6°
